AFR6005 LFMN-LFMD

Flight info

Callsign AFR6005
Flight time 0h 17m
Altitude 4000
Route SB SA
Aircraft C172/L-SFG/C

Departure

Time 2026-05-01 14:20
Airport Nice-Côte d'Azur Airport (LFMN)

Arrival

Time 2026-05-01 14:38
Airport Cannes Mandelieu Airport (LFMD)
Time Latitude Longitude Altitude Speed Heading
2026-05-01 13:56 43.67064 7.22736 16 ft 0 kts 131°
2026-05-01 14:04 43.67067 7.22745 16 ft 1 kts
2026-05-01 14:05 43.67076 7.22718 16 ft 5 kts 299°
2026-05-01 14:05 43.67085 7.22697 16 ft 2 kts 262°
2026-05-01 14:05 43.67050 7.22656 16 ft 11 kts 221°
2026-05-01 14:05 43.67000 7.22589 16 ft 11 kts 228°
2026-05-01 14:06 43.66983 7.22564 16 ft 0 kts 225°
2026-05-01 14:08 43.66982 7.22564 16 ft 1 kts 225°
2026-05-01 14:08 43.66945 7.22512 16 ft 11 kts 225°
2026-05-01 14:08 43.66884 7.22428 16 ft 13 kts 224°
2026-05-01 14:08 43.66816 7.22336 16 ft 14 kts 225°
2026-05-01 14:09 43.66748 7.22243 16 ft 14 kts 221°
2026-05-01 14:09 43.66683 7.22151 16 ft 13 kts 228°
2026-05-01 14:09 43.66619 7.22064 16 ft 13 kts 227°
2026-05-01 14:09 43.66559 7.21981 16 ft 12 kts 224°
2026-05-01 14:10 43.66498 7.21896 16 ft 12 kts 222°
2026-05-01 14:10 43.66439 7.21819 16 ft 12 kts 224°
2026-05-01 14:10 43.66382 7.21738 16 ft 12 kts 225°
2026-05-01 14:10 43.66324 7.21659 16 ft 12 kts 224°
2026-05-01 14:11 43.66267 7.21581 16 ft 11 kts 225°
2026-05-01 14:11 43.66156 7.21426 16 ft 11 kts 224°
2026-05-01 14:11 43.66100 7.21351 16 ft 11 kts 224°
2026-05-01 14:12 43.66045 7.21274 16 ft 11 kts 223°
2026-05-01 14:12 43.65990 7.21198 16 ft 11 kts 223°
2026-05-01 14:12 43.65936 7.21123 16 ft 11 kts 224°
2026-05-01 14:12 43.65882 7.21049 16 ft 11 kts 225°
2026-05-01 14:13 43.65827 7.20973 16 ft 11 kts 225°
2026-05-01 14:13 43.65790 7.20923 16 ft 11 kts 224°
2026-05-01 14:13 43.65717 7.20823 16 ft 11 kts 223°
2026-05-01 14:13 43.65663 7.20748 16 ft 11 kts 223°
2026-05-01 14:14 43.65608 7.20674 16 ft 11 kts 229°
2026-05-01 14:14 43.65555 7.20599 16 ft 11 kts 227°
2026-05-01 14:14 43.65501 7.20525 16 ft 11 kts 223°
2026-05-01 14:14 43.65447 7.20453 16 ft 11 kts 227°
2026-05-01 14:15 43.65394 7.20380 16 ft 11 kts 224°
2026-05-01 14:15 43.65345 7.20315 16 ft 8 kts 219°
2026-05-01 14:15 43.65325 7.20300 16 ft 1 kts 194°
2026-05-01 14:15 43.65295 7.20294 16 ft 10 kts 169°
2026-05-01 14:16 43.65258 7.20325 16 ft 0 kts 131°
2026-05-01 14:17 43.65247 7.20341 16 ft 9 kts 134°
2026-05-01 14:17 43.65221 7.20435 16 ft 13 kts 79°
2026-05-01 14:18 43.65273 7.20532 16 ft 4 kts 45°
2026-05-01 14:18 43.65274 7.20533 16 ft 0 kts 43°
2026-05-01 14:19 43.65368 7.20663 16 ft 41 kts 45°
2026-05-01 14:19 43.65651 7.21047 27 ft 68 kts 45°
2026-05-01 14:19 43.66016 7.21530 86 ft 80 kts 51°
2026-05-01 14:19 43.66434 7.22096 183 ft 84 kts 45°
2026-05-01 14:20 43.66891 7.22609 330 ft 85 kts 47°
2026-05-01 14:20 43.67544 7.23776 765 ft 74 kts 63°
2026-05-01 14:20 43.67765 7.24425 959 ft 74 kts 78°
2026-05-01 14:21 43.67607 7.25194 848 ft 99 kts 123°
2026-05-01 14:21 43.67197 7.26001 734 ft 106 kts 126°
2026-05-01 14:21 43.66763 7.26770 793 ft 94 kts 137°
2026-05-01 14:22 43.65560 7.26768 848 ft 101 kts 214°
2026-05-01 14:22 43.65014 7.26165 952 ft 94 kts 216°
2026-05-01 14:22 43.64507 7.25592 970 ft 96 kts 215°
2026-05-01 14:22 43.64003 7.25029 1017 ft 92 kts 214°
2026-05-01 14:23 43.63515 7.24464 1041 ft 93 kts 216°
2026-05-01 14:23 43.62999 7.23916 1012 ft 94 kts 211°
2026-05-01 14:23 43.62461 7.23375 1002 ft 88 kts 212°
2026-05-01 14:23 43.61950 7.22884 1010 ft 88 kts 207°
2026-05-01 14:24 43.61435 7.22494 1068 ft 82 kts 201°
2026-05-01 14:24 43.60952 7.22128 1162 ft 78 kts 203°
2026-05-01 14:24 43.60470 7.21788 1225 ft 77 kts 206°
2026-05-01 14:24 43.59979 7.21421 1272 ft 85 kts 199°
2026-05-01 14:25 43.59465 7.21075 1409 ft 79 kts 196°
2026-05-01 14:25 43.58942 7.20725 1429 ft 87 kts 197°
2026-05-01 14:25 43.58376 7.20297 1392 ft 96 kts 205°
2026-05-01 14:25 43.57781 7.19785 1283 ft 107 kts 207°
2026-05-01 14:26 43.57178 7.19221 1288 ft 102 kts 212°
2026-05-01 14:26 43.56080 7.17947 1182 ft 106 kts 215°
2026-05-01 14:26 43.55540 7.17245 1123 ft 108 kts 222°
2026-05-01 14:27 43.55055 7.16472 1145 ft 105 kts 225°
2026-05-01 14:27 43.54565 7.15679 1084 ft 111 kts 224°
2026-05-01 14:27 43.54138 7.14804 1056 ft 111 kts 240°
2026-05-01 14:28 43.53569 7.12859 1077 ft 109 kts 245°
2026-05-01 14:28 43.53270 7.11926 1077 ft 104 kts 240°
2026-05-01 14:28 43.52932 7.11020 1021 ft 106 kts 241°
2026-05-01 14:28 43.52615 7.10108 991 ft 106 kts 238°
2026-05-01 14:29 43.52276 7.09229 1007 ft 102 kts 238°
2026-05-01 14:29 43.51921 7.08410 1008 ft 97 kts 237°
2026-05-01 14:30 43.50982 7.05977 1059 ft 100 kts 237°
2026-05-01 14:30 43.50649 7.05143 1060 ft 96 kts 245°
2026-05-01 14:30 43.50478 7.04590 1074 ft 94 kts 242°
2026-05-01 14:31 43.50229 7.02897 1172 ft 94 kts 276°
2026-05-01 14:31 43.50392 7.02034 1231 ft 94 kts 304°
2026-05-01 14:31 43.50791 7.01284 1262 ft 98 kts 312°
2026-05-01 14:31 43.51148 7.00516 1393 ft 94 kts 306°
2026-05-01 14:32 43.51496 6.99703 1331 ft 105 kts 306°
2026-05-01 14:32 43.51888 6.98917 1278 ft 94 kts 316°
2026-05-01 14:32 43.52337 6.98308 1196 ft 89 kts 327°
2026-05-01 14:32 43.52897 6.97915 1010 ft 89 kts 350°
2026-05-01 14:33 43.53476 6.97725 977 ft 79 kts 350°
2026-05-01 14:33 43.53994 6.97532 999 ft 78 kts 353°
2026-05-01 14:33 43.54514 6.97417 1045 ft 74 kts
2026-05-01 14:33 43.55039 6.97355 1108 ft 73 kts
2026-05-01 14:34 43.55537 6.97318 1176 ft 73 kts
2026-05-01 14:34 43.56049 6.97263 1148 ft 77 kts 358°
2026-05-01 14:34 43.56604 6.97179 1040 ft 80 kts 351°
2026-05-01 14:34 43.57145 6.97179 949 ft 80 kts 18°
2026-05-01 14:35 43.57687 6.97372 891 ft 79 kts 28°
2026-05-01 14:35 43.58203 6.97488 851 ft 78 kts 355°
2026-05-01 14:35 43.58725 6.97314 814 ft 75 kts 350°
2026-05-01 14:35 43.59138 6.96933 780 ft 66 kts 309°
2026-05-01 14:36 43.59194 6.96289 734 ft 65 kts 225°
2026-05-01 14:36 43.58788 6.95976 666 ft 69 kts 193°
2026-05-01 14:36 43.58369 6.95630 684 ft 77 kts 220°
2026-05-01 14:36 43.57972 6.95133 672 ft 77 kts 207°
2026-05-01 14:37 43.57506 6.94803 567 ft 69 kts 191°
2026-05-01 14:37 43.57081 6.94694 446 ft 55 kts 173°
2026-05-01 14:37 43.56691 6.94734 330 ft 55 kts 168°
2026-05-01 14:37 43.56321 6.94817 257 ft 53 kts 168°
2026-05-01 14:38 43.55979 6.94866 209 ft 48 kts 165°
2026-05-01 14:38 43.55627 6.94938 117 ft 54 kts 169°
2026-05-01 14:38 43.55249 6.95010 25 ft 52 kts 169°
2026-05-01 14:38 43.54920 6.95069 12 ft 45 kts 169°
2026-05-01 14:39 43.54646 6.95120 12 ft 32 kts 174°
2026-05-01 14:39 43.54317 6.95176 51 ft 61 kts 173°
2026-05-01 14:39 43.53879 6.95194 196 ft 64 kts 174°
2026-05-01 14:39 43.53435 6.95223 399 ft 61 kts 153°
2026-05-01 14:40 43.53300 6.95760 658 ft 67 kts 92°
2026-05-01 14:40 43.53305 6.96401 808 ft 68 kts 84°
2026-05-01 14:40 43.53496 6.97026 865 ft 80 kts 49°
2026-05-01 14:40 43.54109 6.97167 878 ft 100 kts 356°
2026-05-01 14:41 43.54779 6.96997 959 ft 98 kts 357°
2026-05-01 14:41 43.55384 6.96894 1053 ft 82 kts
2026-05-01 14:41 43.55945 6.96831 1029 ft 81 kts
2026-05-01 14:41 43.56506 6.96787 942 ft 80 kts
2026-05-01 14:42 43.57097 6.96760 827 ft 84 kts
2026-05-01 14:42 43.57632 6.96624 698 ft 78 kts 317°
2026-05-01 14:42 43.57938 6.96023 670 ft 73 kts 290°
2026-05-01 14:42 43.57890 6.95329 646 ft 75 kts 227°
2026-05-01 14:43 43.57439 6.94997 554 ft 75 kts 206°
2026-05-01 14:43 43.56983 6.94780 490 ft 65 kts 184°
2026-05-01 14:43 43.56559 6.94751 380 ft 60 kts 167°
2026-05-01 14:43 43.56172 6.94836 258 ft 51 kts 165°
2026-05-01 14:44 43.55839 6.94909 143 ft 49 kts 167°
2026-05-01 14:44 43.55151 6.95027 12 ft 47 kts 168°
2026-05-01 14:44 43.54889 6.95076 10 ft 33 kts 173°